Location: Poprad
(49.0500°N, 20.3000°E)
Time: 05:20:40
(UTC+02:00)

POLYITAN 1 - Visible Passes

Search period start: 16 April 2024 00:00
Search period end: 26 April 2024 00:00
Orbit: 555 x 575 km, 98.1° (Epoch: 15 April)

Date Brightness Start Highest point End Pass type
(mag) Time Alt. Az. Time Alt. Az. Time Alt. Az.
16 Apr ? 03:46:51 10° NNE 03:50:51 52° E 03:53:56 16° S visible
17 Apr ? 03:47:05 10° NNE 03:51:06 52° E 03:54:19 15° S visible
18 Apr ? 03:47:18 10° NNE 03:51:18 53° E 03:54:39 14° S visible
19 Apr ? 03:47:29 10° NNE 03:51:29 52° E 03:54:58 13° S visible
20 Apr ? 03:47:38 10° NNE 03:51:39 52° E 03:55:14 12° S visible
21 Apr ? 03:47:45 10° NNE 03:51:46 52° E 03:55:29 12° S visible
22 Apr ? 03:47:51 10° NNE 03:51:52 52° E 03:55:41 11° S visible
23 Apr ? 03:47:55 10° NNE 03:51:56 52° E 03:55:52 10° S visible
24 Apr ? 03:47:57 10° NNE 03:51:58 52° E 03:55:56 10° S visible
25 Apr ? 03:47:58 10° NNE 03:51:58 52° E 03:55:57 10° S visible
